Regional Weather Roundup
Issued by NWS Northern Indiana

Current Version | Previous Version | Text Only | Print | Product List | Glossary On
Versions: 1 2 3 4 5 6 7 8 9 10 11 12 13 14 15 16 17 18 19 20 21 22 23 24 25 26 27 28 29 30 31 32 33 34 35 36 37 38 39 40 41 42 43 44 45 46 47 48 49 50
000
ASUS43 KIWX 302210
RWRIWX

KIWX WEATHER ROUNDUP
NATIONAL WEATHER SERVICE NORTHERN INDIANA
600 PM EDT TUE SEP 30 2014

NOTE: "FAIR" INDICATES FEW OR NO CLOUDS BELOW 12,000 FEET WITH NO
SIGNIFICANT WEATHER AND/OR OBSTRUCTIONS TO VISIBILITY.

* THESE STATIONS ARE NOT UNDER NWS QUALITY CONTROL. THEY ALSO MAY NOT
  REPORT WEATHER SUCH AS PRECIPITATION OR FOG.

INZ001>027-302300-
NORTHERN INDIANA

CITY           SKY/WX    TMP DP  RH WIND       PRES   REMARKS
GARY*          CLOUDY    57  48  72 N6        30.01F
VALPARAISO     CLOUDY    55  46  71 VRB5      30.00S
MICHIGAN CITY* CLOUDY    54  43  66 NE5       30.01S
LAPORTE*       CLOUDY    56  47  72 CALM      30.01S
KNOX*          CLOUDY    56  46  69 NE8       29.99S
SOUTH BEND     CLOUDY    55  45  67 VRB6      30.01
ELKHART*       CLOUDY    54  45  71 NE6       30.01R
MONTICELLO*    SUNNY     64  49  58 N7        29.96R
LOGANSPORT*    SUNNY     61  45  55 N9        29.97S
ROCHESTER*     SUNNY     63  48  59 N8        29.98S
WARSAW*        CLOUDY    54  45  71 NE8       30.00R
ANGOLA*        CLOUDY    54  46  76 CALM      29.98F
FORT WAYNE     CLOUDY    56  47  71 N7        29.99S
HUNTINGTON*    CLOUDY    55  47  74 NE7       29.99R
PERU/GRISSOM   SUNNY     64  52  64 NW10      29.96R
MARION*        SUNNY     61  47  58 NE10      29.97R

$$
INZ028>050-302300-
CENTRAL INDIANA

CITY           SKY/WX    TMP DP  RH WIND       PRES   REMARKS
LAFAYETTE      SUNNY     64  48  56 N12       29.95S
KOKOMO*        SUNNY     66  48  52 N10       29.96R
MUNCIE*        SUNNY     65  48  54 NE8       29.96R
INDIANAPOLIS   PTSUNNY   67  52  58 N8        29.93S

$$
MIZ043>046-050>051-056>058-064>065-071>073-077>080-302300-
SOUTHWEST LOWER MICHIGAN

CITY           SKY/WX    TMP DP  RH WIND       PRES   REMARKS
BATTLE CREEK   CLOUDY    57  47  69 N5        30.00R
COLDWATER*     CLOUDY    57  49  75 N5        29.99S
HILLSDALE*     CLOUDY    56  50  78 CALM      29.98S
GRAND RAPIDS   CLOUDY    56  49  77 N8        30.00S
KALAMAZOO      CLOUDY    56  47  71 N6        30.00F
STURGIS*       CLOUDY    54  48  82 CALM      29.98
THREE RIVERS*  CLOUDY    55  48  75 N3        30.00S

$$
OHZ001>008-015>018-024>025-302300-
NORTHWEST OHIO

CITY           SKY/WX    TMP DP  RH WIND       PRES   REMARKS
WAUSEON*       CLOUDY    57  50  77 N5        29.98R
DEFIANCE       CLOUDY    58  47  66 N6        29.98S
FINDLAY        CLOUDY    59  49  69 N7        29.96R
TOLEDO EXPRESS CLOUDY    57  48  72 N6        29.97S
TOLEDO METCALF CLOUDY    59  49  69 N5        29.97F
LIMA           CLOUDY    58  48  69 NW6       29.97R

$$
AND FOR LAKE MICHIGAN COASTAL AND OPEN LAKE BUOY OBSERVATIONS

STATION/POSITION TEMP    WIND        PRES    VSBY  WAVE
                 AIR SEA DIR/SP/G                  HT/PER
                 (F)     (DEG/KT/KT) (MB)    (MI)  (FT/S)
CALUMET HARBOR    56      20/ 10/ 14 1014.8R
MICHIGAN CITY     54     360/ 14/ 16   N/A
SAINT JOSEPH      54      10/  1/  5 1016.9R
SOUTH LAKE BUOY   54 62   20/ 14/ 16 1016.5R         4/ 7
4 MI NW BRIDGMAN  55 62   20/  8/ 12   N/A           4/ 2
MICHIGAN CITY     55 65   20/ 10/ 16   N/A           5/ 2

$$
&&


USA.gov is the U.S. government's official web portal to all federal, state and local government web resources and services.